Printer-friendly version

IAU Minor Planet Center

Minor Planet Center

MPEC 2005-V41 : COMET P/2005 V1 (BERNARDI)

The following Minor Planet Electronic Circular may be linked-to from your own Web pages, but must not otherwise be redistributed electronically.


Read MPEC 2005-V40 Read MPEC 2005-V42


M.P.E.C. 2005-V41                                Issued 2005 Nov. 5, 01:19 UT

     The Minor Planet Electronic Circulars contain information on unusual
         minor planets and routine data on comets.  They are published
   on behalf of Commission 20 of the International Astronomical Union by the
          Minor Planet Center, Smithsonian Astrophysical Observatory,
                          Cambridge, MA 02138, U.S.A.

                  Supported in part by the Brinson Foundation
                  Supported in part by the TABASGO Foundation
             Prepared using the Tamkin Foundation Computer Network

                              MPC@CFA.HARVARD.EDU
          URL http://cfa-www.harvard.edu/iau/mpc.html  ISSN 1523-6714

                          COMET P/2005 V1 (BERNARDI)

Observations:
    PK05V010  C2005 11 01.62042311 33 44.690+08 23 02.07         20.5 T EV041568
    PK05V010  C2005 11 01.62555311 33 45.233+08 23 00.10         20.4 T EV041568
    PK05V010  C2005 11 01.63067011 33 45.779+08 22 58.18         20.4 T EV041568
    PK05V010  C2005 11 01.63579611 33 46.325+08 22 56.32         20.5 T EV041568
    PK05V010  C2005 11 02.62936611 35 31.926+08 16 50.86         20.5 T EV041568
    PK05V010  C2005 11 02.63066311 35 32.058+08 16 50.45         20.7 T EV041568
    PK05V010  C2005 11 02.63194311 35 32.195+08 16 49.85         20.7 T EV041568
    PK05V010  C2005 11 02.63323011 35 32.335+08 16 49.56         20.6 T EV041568
    PK05V010  C2005 11 03.63377611 37 18.267+08 10 45.15         20.1 T EV041568
    PK05V010  C2005 11 03.63730211 37 18.632+08 10 43.87         20.0 T EV041568
    PK05V010  C2005 11 03.64077811 37 19.020+08 10 42.50         20.0 T EV041568
    PK05V010  C2005 11 04.63484311 39 03.859+08 04 43.56         20.6 T EV041568
    PK05V010  C2005 11 04.63954511 39 04.362+08 04 41.81         20.6 T EV041568
    PK05V010  C2005 11 04.64422511 39 04.846+08 04 40.19         20.5 T EV041568
    PK05V010  C2005 11 04.64890011 39 05.346+08 04 38.53         20.5 T EV041568

Observer details:
568 Mauna Kea.  Observers T. Burdullis, M. Laychak, H. Hsieh.  Measurers
    F. Bernardi, A. Boattini, D. J. Tholen.  3.6-m Canada-France-Hawaii
    telescope + CCD (Nov. 1-3), 2.2-m University of Hawaii reflector (Nov. 4).

Orbital elements:
    P/2005 V1 (Bernardi)
T 2005 Sept. 3.113 TT                                   MPC
q   2.44635              (2000.0)            P               Q
n   0.060043       Peri.    4.483       -0.702239       -0.681861
a   6.45896        Node   130.300       +0.644562       -0.731046
e   0.62125        Incl.   15.574       +0.302325       -0.025221
P  16.4
From 15 observations 2005 Nov. 1-4.

Ephemeris:
    P/2005 V1 (Bernardi)
Date    TT    R. A. (2000) Decl.     Delta      r     Elong.  Phase   m1    m2
2005 10 27    11 23.67   +08 58.4    3.081    2.490    45.7    16.6  19.9
2005 11 06    11 41.45   +07 56.6    3.007    2.508    51.2    17.9  19.9
2005 11 16    11 58.54   +07 00.9    2.927    2.528    57.0    19.2  19.9
2005 11 26    12 14.85   +06 13.0    2.842    2.551    63.1    20.2  19.8
2005 12 06    12 30.25   +05 34.7    2.753    2.576    69.4    21.0  19.8
2005 12 16    12 44.58   +05 08.0    2.660    2.604    76.0    21.5  19.8
2005 12 26    12 57.67   +04 54.3    2.567    2.634    83.0    21.8  19.8

Brian G. Marsden             (C) Copyright 2005 MPC           M.P.E.C. 2005-V41

Read MPEC 2005-V40 Read MPEC 2005-V42


Our Web policy. Index to the CBAT/MPC/ICQ pages.


Valid HTML 4.01!